星链-6060 (STARLINK-6060 )

导读

STARLINK-6060是美国SpaceX公司星链星座中的一颗卫星,于2023年5月31日发射升空。星链计划旨在构建全球卫星互联网星座,为全球提供高速互联网服务,这颗卫星承担着扩展星座覆盖范围、提升服务容量的任务,目前已在近地轨道运行近三年,支撑星链系统的运营服务。

Basic Information
目录编号:
56794
目录名称:
STARLINK-6060
国际标识:
2023-078AD
轨道中心:
EARTH
卫星名称:
星链-6060
卫星全名:
星链-6060 (STARLINK-6060 )
卫星状态:
在轨 (已飞行1193 天)
发射日期:
2023-05-31 UTC
国别 :
美国 (US)
星等 :
--
Orbit Information
数据来源 国际轨道数据 AOE轨道数据
星历时间 2026-09-05T00:05:45+0800
11小时前
查看轨道信息
2026-09-03T12:00:00+0800
1天前
查看轨道信息
半长轴 6950.186km 6950.198km
偏心率 0.0003699 0.000378
轨道倾角 69.999° 69.997°
近地点辐角 269.322° 276.026°
升交点赤经 233.157° 236.949°
平近点角 90.751° 253.787°
近地点 569.478km 569.433km
远地点 574.62km 574.689km
周期 96.107分钟 96.107分钟
每日圈数 14.983325 14.983284
Detailed Information
固有亮度:
5
最大亮度:
2.5
卫星平台:
Starlink v1.5
覆盖范围:
全球
运营商:
太空探索技术公司
运营商所在国:
美国
制造商(研发单位):
太空探索技术公司
制造商所在国:
美国
使用方式:
暂无
Satellite Introduction
星链(Starlink)计划是由太空探索技术公司(SpaceX)提出的一个巨型低轨卫星互联网星座项目,计划在2019年至2024年间在太空搭建由约1.2万颗卫星组成的“星链”网络,其中1584颗将部署在地球上空550千米处的近地轨道,并从2020年开始工作。该卫星仍在工作。
2D Orbit Map
3D Orbit Map
Orbit Altitude Analysis Chart
Orbit Inclination Analysis Chart
Orbit Comprehensive Analysis Chart
View Comprehensive Chart
Conjunction Data List
Event ID Objects TCA Miss Dist (km) Collision Risk Probability Collision Risk Index (CRI) Action
CDM_260905-051505-679406-489824
2026-09-05T
05:15:53+0000
1.222 km
极远距离
1.022876E-5 中风险 0.55
CDM_260904-171803-821205-679423
2026-09-04T
17:18:06+0000
1.253 km
极远距离
5.935283E-6 低风险 0.5